Flag for United Kingdom Weather past 2 weeks in King's Lynn, England, United Kingdom

Now
43 °F

Quite cool.


Feels Like: 35 °F
Forecast: 39 / 48 °F
Wind: 16 mph from Southwest

Location: Marham

Current Time: Mar 1, 2015 at 9:31:20 AM

Latest Report: Mar 1, 2015 at 7:50 AM


Visibility: N/A

Pressure: 29.42 "Hg

Humidity: 76%

Dew point: 36 °F

Location of King's LynnLocation

Historic Weather in King's Lynn — Graph

°F

King's Lynn temperature yesterday

Maximum temperature yesterday: 50 °F (at 11:50 PM)
Minimum temperature yesterday: 37 °F (at 12:50 AM)
Average temperature yesterday: 45 °F

Past Weeks' High & Low Weather Summary

 TemperatureHumidityPressure
High52 °F (Feb 26, 9:50 AM)100% (Feb 14, 8:50 PM)30.72 "Hg (Feb 14, 8:50 PM)
Low28 °F (Feb 22, 5:50 AM)57% (Feb 24, 2:50 PM)29.12 "Hg (Feb 22, 10:50 PM)
Average41 °F85%29.84 "Hg
* Reported Feb 14 7:50 AM — Mar 1 7:50 AM, King's Lynn, Weather by CustomWeather, © 2015

Note: Actual official high and low records may vary slightly from our data, if they occured in-between our weather recording intervals... More about our weather records

Advertising

King's Lynn weather history for previous 24 hours

 ConditionsComfort  
Time TempWeatherWind HumidityBarometerVisibility
7:50 AM
Sun, Mar 1
43 °FQuite cool.16 mph76%29.42 "HgN/A
6:50 AM43 °FQuite cool.17 mph76%29.42 "HgN/A
5:50 AM43 °FQuite cool.18 mph76%29.39 "HgN/A
4:50 AM43 °FQuite cool.20 mph76%29.39 "HgN/A
3:50 AM45 °FQuite cool.22 mph76%29.36 "HgN/A
2:50 AM46 °FPassing clouds.24 mph76%29.36 "HgN/A
1:50 AM48 °FPassing clouds.21 mph87%29.33 "HgN/A
12:50 AM50 °FPassing clouds.21 mph88%29.30 "HgN/A
11:50 PM
Sat, Feb 28
50 °FPassing clouds.22 mph94%29.30 "HgN/A
10:50 PM48 °FDrizzle. Low clouds.24 mph94%29.33 "Hg4 mi
9:50 PM48 °FPassing clouds.23 mph94%29.36 "HgN/A
8:50 PM46 °FLight rain. Passing clouds.23 mph93%29.39 "HgN/A
7:50 PM46 °FRain. Passing clouds.22 mph93%29.45 "Hg4 mi
6:50 PM48 °FRain showers. Overcast.17 mph87%29.47 "HgN/A
5:50 PM48 °FPartly cloudy.20 mph87%29.53 "HgN/A
4:50 PM48 °FBroken clouds.17 mph87%29.53 "HgN/A
3:50 PM48 °FBroken clouds.20 mph94%29.59 "HgN/A
2:50 PM48 °FLow clouds.21 mph87%29.62 "HgN/A
1:50 PM48 °FLow clouds.21 mph87%29.65 "HgN/A
12:50 PM46 °FOvercast.23 mph87%29.68 "HgN/A
11:50 AM48 °FOvercast.22 mph82%29.74 "HgN/A
10:50 AM46 °FPartly sunny.21 mph87%29.77 "HgN/A
9:50 AM45 °FDrizzle. Partly sunny.21 mph93%29.80 "HgN/A
Weather by CustomWeather, © 2015

See weather overviewHow to use our weather pages